Погода в Соликамске

Россия / Пермский край     59°38′53″N   56°46′15″E
темп.,
°C
ветер,
м/с
пор.,
м/с
влажн.,
%
обл.,
%
осадки,
мм/ч
давл.,
гПа
погр.,
м
22 января, пт
пт2223:00−19юв129896 0.3 101232
02:00−20вюв1298100 0.1 101356
05:00−20вюв239899 0.2 1014103
08:00−20в249898 0.1 1016110
11:00−22в249794 0.2 1018115
14:00−20в139390 0.0 1020225
17:00−24всв229356 0.0 102320
20:00−26в22900 0.0 102622
23 января, сб
сб2323:00−27вюв12904 0.0 102919
02:00−28ю129659 0.0 103119
05:00−30ююв119671 0.0 103219
08:00−29ююв129494 0.0 103321
11:00−27ююв249197 0.0 1032168
14:00−24юв2588100 0.0 1031260
17:00−23юв2689100 0.0 1030294
20:00−22ююв3890100 0.0 1029297
24 января, вс
вс2423:00−21юв3997100 0.2 1028341
02:00−20юв3896100 0.1 1028392
05:00−20юв3995100 0.1 1028327
08:00−21юв4119196 0.0 1028387
11:00−21юв5118998 0.0 1029416
14:00−20юв51196100 0.6 1029439
17:00−19ююв41096100 1.0 1028478
20:00−19ююв41097100 0.7 1028447
25 января, пн
пн2523:00−20ююв4997100 1.4 1028342
02:00−20ююв3697100 0.5 1027299
05:00−19юв2597100 0.8 1027252
08:00−19юв259799 0.1 1028186
11:00−17ююв2496100 0.3 1028197
14:00−13ююв2594100 0.3 1027247
17:00−12ююв259699 0.5 1027198
20:00−10ююв379596 0.3 1026205
26 января, вт
вт2623:00−8ююв269698 1.1 1025236
02:00−5ююв3596100 0.7 1025159
05:00−2ююв2398100 1.2 1024132
08:00+1юз3899100 0.8 1025294
11:00−2ююз4995100 1.6 1025410
14:00−4ююз489499 0.1 1025533
17:00−3ююз389499 0.1 1025605
20:00−3ююз41096100 0.7 1025573